Weather History for KDUH - November, 2011

Change the Weather History Date:

Thursday, November 10, 2011

  Actual Average (KTOL) Record (KTOL)
Temperature  
Mean Temperature 38 °F 44 °F  
Max Temperature 42 °F 53 °F 68 °F (1999)
Min Temperature 35 °F 35 °F 19 °F (1973)
Degree Days  
Heating Degree Days 26 21  
Month to date heating degree days 195  
Since 1 July heating degree days 721  
Cooling Degree Days 0 0  
Month to date cooling degree days 0  
Year to date cooling degree days 793  
Moisture  
Dew Point 31 °F    
Average Humidity 73    
Maximum Humidity 87    
Minimum Humidity 46    
Precipitation  
Precipitation 0.00 in 0.08 in 1.14 in (2002)
Month to date precipitation 0.89  
Year to date precipitation 29.59  
Snow  
Snow 0.00 in 0.00 in - ()
Month to date snowfall 0.3  
Since 1 July snowfall 0.5  
Since 1 September snowfall 0.5  
Snow Depth -    
Sea Level Pressure  
Sea Level Pressure 29.93 in    
Wind  
Wind Speed 10 mph (WSW)    
Max Wind Speed 17 mph    
Max Gust Speed 24 mph    
Visibility 10 miles    
Events Rain    
T = Trace of Precipitation, MM = Missing Value Source: NWS Daily Summary

Daily Weather History Graph

Daily Weather History Graph

Search for Another Location

Airport or City:

Trip Planner

Search our weather history database for the weather conditions in past years. The results will help you decide how hot, cold, wet, or windy it might be!

Date:

Astronomy

Nov. 10, 2011 Rise Set
Actual Time 7:17 AM EST 5:19 PM EST
Civil Twilight 6:47 AM EST 5:48 PM EST
Nautical Twilight 6:14 AM EST 6:21 PM EST
Astronomical Twilight 5:41 AM EST 6:54 PM EST
Moon 5:05 PM EST (11/10) 7:09 AM EST (11/10)
Length of Visible Light 11h 00m
Length of Day
10h 01m
Full, 100% of the Moon is Illuminated
Nov 10
Full
Nov 10
Full
Nov 18
Last Quarter
Nov 25
New
Dec 2
First Quarter

Hourly Weather History & Observations

Time (EST) Temp. Windchill Dew Point Humidity Pressure Visibility Wind Dir Wind Speed Gust Speed Precip Events Conditions
12:15 AM 41.0 °F 34.3 °F 33.8 °F 76% 29.92 in 10.0 mi WSW 11.5 mph 17.3 mph N/A   Mostly Cloudy
12:35 AM 41.0 °F 34.7 °F 33.8 °F 76% 29.93 in 10.0 mi WSW 10.4 mph - N/A   Overcast
12:55 AM 41.0 °F 35.2 °F 33.8 °F 76% 29.93 in 10.0 mi WSW 9.2 mph 16.1 mph N/A   Overcast
1:15 AM 41.0 °F 34.3 °F 33.8 °F 76% 29.93 in 10.0 mi WSW 11.5 mph 17.3 mph N/A   Overcast
1:35 AM 41.0 °F 34.7 °F 33.8 °F 76% 29.93 in 10.0 mi WSW 10.4 mph 17.3 mph N/A   Overcast
1:55 AM 41.0 °F 34.7 °F 33.8 °F 76% 29.93 in 10.0 mi WSW 10.4 mph - N/A   Overcast
2:15 AM 41.0 °F 35.2 °F 33.8 °F 76% 29.94 in 10.0 mi WSW 9.2 mph - N/A   Overcast
2:35 AM 41.0 °F 34.7 °F 33.8 °F 76% 29.95 in 10.0 mi WSW 10.4 mph - N/A   Overcast
2:55 AM 41.0 °F 34.3 °F 33.8 °F 76% 29.95 in 10.0 mi WSW 11.5 mph - N/A   Overcast
3:15 AM 41.0 °F 34.3 °F 33.8 °F 76% 29.95 in 10.0 mi SW 11.5 mph 17.3 mph N/A   Overcast
3:35 AM 41.0 °F 35.8 °F 35.6 °F 81% 29.95 in 10.0 mi SW 8.1 mph - N/A   Overcast
3:55 AM 41.0 °F 35.2 °F 33.8 °F 76% 29.94 in 10.0 mi SW 9.2 mph - N/A   Overcast
4:15 AM 41.0 °F 35.2 °F 33.8 °F 76% 29.95 in 10.0 mi WSW 9.2 mph - N/A   Overcast
4:35 AM 41.0 °F 35.8 °F 33.8 °F 76% 29.95 in 10.0 mi SW 8.1 mph - N/A   Mostly Cloudy
4:55 AM 39.2 °F 34.2 °F 33.8 °F 81% 29.95 in 10.0 mi WSW 6.9 mph - N/A   Clear
5:15 AM 37.4 °F 32.1 °F 32.0 °F 81% 29.95 in 10.0 mi SW 6.9 mph - N/A   Clear
5:55 AM 37.4 °F 32.1 °F 32.0 °F 81% 29.95 in 10.0 mi SW 6.9 mph - N/A   Clear
6:15 AM 37.4 °F 31.4 °F 32.0 °F 81% 29.95 in 10.0 mi SW 8.1 mph - N/A   Clear
6:35 AM 35.6 °F 29.2 °F 32.0 °F 87% 29.96 in 10.0 mi SW 8.1 mph - N/A   Clear
6:55 AM 35.6 °F 29.2 °F 32.0 °F 87% 29.96 in 10.0 mi SW 8.1 mph - N/A   Clear
7:15 AM 35.6 °F 29.9 °F 32.0 °F 87% 29.96 in 10.0 mi SW 6.9 mph - N/A   Clear
7:35 AM 35.6 °F 31.7 °F 32.0 °F 87% 29.96 in 10.0 mi SW 4.6 mph - N/A   Clear
7:55 AM 35.6 °F 29.9 °F 32.0 °F 87% 29.96 in 10.0 mi SW 6.9 mph - N/A   Clear
8:15 AM 35.6 °F 29.2 °F 32.0 °F 87% 29.96 in 10.0 mi SW 8.1 mph - N/A   Clear
8:35 AM 37.4 °F 30.3 °F 32.0 °F 81% 29.96 in 10.0 mi SW 10.4 mph 16.1 mph N/A   Clear
8:55 AM 37.4 °F 29.8 °F 32.0 °F 81% 29.96 in 10.0 mi SW 11.5 mph 18.4 mph N/A   Clear
9:35 AM 37.4 °F 30.8 °F 32.0 °F 81% 29.95 in 10.0 mi SW 9.2 mph - N/A   Scattered Clouds
9:55 AM 37.4 °F 29.8 °F 32.0 °F 81% 29.95 in 10.0 mi WSW 11.5 mph 18.4 mph N/A   Mostly Cloudy
10:15 AM 39.2 °F 33.6 °F 32.0 °F 75% 29.94 in 10.0 mi SW 8.1 mph - N/A   Mostly Cloudy
10:35 AM 41.0 °F 34.3 °F 32.0 °F 70% 29.94 in 10.0 mi WSW 11.5 mph 21.9 mph N/A   Scattered Clouds
10:55 AM 41.0 °F 32.8 °F 32.0 °F 70% 29.94 in 10.0 mi WSW 16.1 mph 21.9 mph N/A   Scattered Clouds
11:15 AM 42.8 °F 37.0 °F 32.0 °F 66% 29.93 in 10.0 mi WSW 10.4 mph 19.6 mph N/A   Mostly Cloudy
11:35 AM 42.8 °F 36.6 °F 32.0 °F 66% 29.93 in 10.0 mi WSW 11.5 mph 23.0 mph N/A   Mostly Cloudy
11:55 AM 41.0 °F 33.9 °F 28.4 °F 61% 29.93 in 10.0 mi West 12.7 mph 24.2 mph N/A   Mostly Cloudy
12:15 PM 41.0 °F 33.5 °F 28.4 °F 61% 29.91 in 10.0 mi West 13.8 mph 23.0 mph N/A   Mostly Cloudy
12:35 PM 42.8 °F 35.8 °F 28.4 °F 57% 29.90 in 10.0 mi WSW 13.8 mph 23.0 mph N/A   Mostly Cloudy
12:55 PM 41.0 °F 33.5 °F 26.6 °F 57% 29.90 in 10.0 mi West 13.8 mph 20.7 mph N/A   Mostly Cloudy
1:35 PM 42.8 °F 35.4 °F 24.8 °F 49% 29.89 in 10.0 mi WSW 15.0 mph 21.9 mph N/A   Mostly Cloudy
1:45 PM 42.8 °F 34.8 °F 23.0 °F 46% 29.89 in 10.0 mi WSW 17.3 mph 23.0 mph N/A   Mostly Cloudy
2:15 PM 42.8 °F 36.6 °F 23.0 °F 46% 29.89 in 10.0 mi WSW 11.5 mph 21.9 mph N/A   Overcast
2:35 PM 42.8 °F 35.8 °F 23.0 °F 46% 29.89 in 10.0 mi WSW 13.8 mph 23.0 mph N/A   Mostly Cloudy
2:55 PM 42.8 °F 38.0 °F 23.0 °F 46% 29.89 in 10.0 mi WSW 8.1 mph 11.5 mph N/A   Overcast
3:15 PM 41.0 °F 33.1 °F 23.0 °F 49% 29.90 in 10.0 mi WSW 15.0 mph 21.9 mph N/A   Scattered Clouds
3:35 PM 41.0 °F 34.7 °F 23.0 °F 49% 29.89 in 10.0 mi WSW 10.4 mph 19.6 mph N/A   Scattered Clouds
3:55 PM 41.0 °F 32.8 °F 23.0 °F 49% 29.90 in 10.0 mi WSW 16.1 mph 23.0 mph N/A   Overcast
4:15 PM 41.0 °F 35.8 °F 24.8 °F 53% 29.90 in 10.0 mi WSW 8.1 mph 19.6 mph N/A   Overcast
4:35 PM 41.0 °F 35.8 °F 26.6 °F 57% 29.91 in 10.0 mi WSW 8.1 mph 18.4 mph N/A   Overcast
4:55 PM 37.4 °F 28.9 °F 30.2 °F 75% 29.92 in 10.0 mi West 13.8 mph 24.2 mph N/A   Overcast
5:15 PM 37.4 °F 32.1 °F 30.2 °F 75% 29.91 in 10.0 mi SW 6.9 mph - N/A   Overcast
5:35 PM 35.6 °F - 30.2 °F 81% 29.91 in 10.0 mi Calm Calm - N/A   Overcast
5:55 PM 37.4 °F 29.3 °F 30.2 °F 75% 29.92 in 10.0 mi West 12.7 mph 21.9 mph N/A   Overcast
6:15 PM 35.6 °F 29.2 °F 30.2 °F 81% 29.92 in 10.0 mi West 8.1 mph - N/A   Overcast
6:35 PM 35.6 °F 29.2 °F 30.2 °F 81% 29.92 in 10.0 mi WNW 8.1 mph - N/A   Overcast
6:55 PM 35.6 °F 32.8 °F 32.0 °F 87% 29.92 in 10.0 mi WNW 3.5 mph - N/A   Overcast
7:15 PM 35.6 °F 30.7 °F 32.0 °F 87% 29.92 in 10.0 mi West 5.8 mph - N/A   Overcast
7:35 PM 35.6 °F 31.7 °F 32.0 °F 87% 29.92 in 10.0 mi WSW 4.6 mph - N/A   Overcast
7:55 PM 35.6 °F 29.2 °F 32.0 °F 87% 29.92 in 10.0 mi West 8.1 mph - N/A Rain Light Rain
8:15 PM 35.6 °F 29.9 °F 32.0 °F 87% 29.91 in 10.0 mi West 6.9 mph - N/A   Overcast
8:35 PM 35.6 °F 30.7 °F 32.0 °F 87% 29.90 in 10.0 mi West 5.8 mph - N/A   Overcast
8:55 PM 35.6 °F 28.6 °F 30.2 °F 81% 29.90 in 10.0 mi West 9.2 mph 16.1 mph N/A   Scattered Clouds
9:15 PM 35.6 °F 28.0 °F 30.2 °F 81% 29.91 in 10.0 mi WSW 10.4 mph - N/A   Scattered Clouds
9:35 PM 35.6 °F 28.0 °F 30.2 °F 81% 29.90 in 10.0 mi WSW 10.4 mph 18.4 mph N/A   Mostly Cloudy
9:55 PM 33.8 °F 27.0 °F 30.2 °F 87% 29.91 in 10.0 mi West 8.1 mph - N/A   Mostly Cloudy
10:15 PM 33.8 °F 27.7 °F 32.0 °F 93% 29.91 in 10.0 mi West 6.9 mph - N/A   Mostly Cloudy
10:35 PM 35.6 °F 28.6 °F 32.0 °F 87% 29.91 in 10.0 mi West 9.2 mph - N/A   Overcast
10:55 PM 35.6 °F 28.0 °F 32.0 °F 87% 29.90 in 10.0 mi West 10.4 mph - N/A   Overcast
11:15 PM 35.6 °F 28.6 °F 32.0 °F 87% 29.90 in 10.0 mi West 9.2 mph 16.1 mph N/A   Overcast
11:35 PM 35.6 °F 28.6 °F 32.0 °F 87% 29.90 in 10.0 mi West 9.2 mph - N/A   Overcast
11:55 PM 35.6 °F 27.5 °F 32.0 °F 87% 29.90 in 10.0 mi West 11.5 mph 17.3 mph N/A   Overcast